Location: Gleizolles
(44.4833°N, 6.7667°E)
Time: 23:31:31
(UTC+00:00)

S-56A Canister/Altair - Pass Details

Date: 29 June 2024
Orbit: 638 x 2488 km, 38.9° (Epoch: 24 July)

Event Time Altitude Azimuth Distance (km) Brightness Sun altitude
Rises 17:27:38 0° 215° (SW) 3,301 11.0 17.5°
Reaches altitude 10° 17:30:07 10° 203° (SSW) 2,545 10.4 17.1°
Maximum altitude 17:35:14 29° 145° (SE) 1,911 9.3 16.2°
Drops below altitude 10° 17:42:15 10° 90° (E) 3,557 10.4 15.0°
Sets 17:46:23 0° 81° (E) 4,882 11.1 14.3°
